Find Starlink 1578

NORAD ID: 46082 Int'l Des: 2020-055 Owner: SPXS Country: US Constellation: starlink operational
LEOCIRCULARSTARLINK_TYPE

实时位置

正在加载3D地球...

关于 Starlink 1578

正在加载描述...

即将过境

Passes for default location (London). Set your location on the main map for personalized predictions.

高度历史

Loading altitude history...

两行轨道根数

1 46082U 20055BH 26120.50026137 .00010834 00000-0 38700-3 0 9994
2 46082 53.1491 220.7596 0001219 93.1883 266.9257 15.29373431317164
Epoch: Apr 30, 2026 • Age: 5 hours

当前状态

高度 478.6 km
速度 7.63 km/s
星下点 28.26°N, 102.62°W
发射日期 Aug 7, 2020
运行时间 5.7 years
类型 internet

技术详情

分类 Payload
质量 260.00 kg
干质量 248.00 kg
总质量 260.00 kg
长度 0.20 m
直径 2.80 m
跨度 9.00 m
形状 Box + pan
制造商 SPXS
平台类型 Starlink
阶段状态 In Orbit
所有者/国家 SPXS/US

Most Searched